• In Germany
  • List of Countries
  • For 7 days
  • Water Temperature
  • Satellite Maps
  • Weather Map
  • Weather Widgets
  • user-avatar
    Login

    Hourly Weather Saidpur

    Today, 23 September, Saturday

    Time Temperature Precipitation Wind Pressure Humidity
    00:00 +30°C° 0 mm 2 mps 752 mmHg 82%
    01:00 +30°C° 3.1 mm 2 mps 752 mmHg 83%
    02:00 +29°C° 3.1 mm 2 mps 752 mmHg 85%
    03:00 +29°C° 3.1 mm 2 mps 751 mmHg 87%
    04:00 +29°C° 2.6 mm 2 mps 752 mmHg 87%
    05:00 +29°C° 2.6 mm 2 mps 752 mmHg 88%
    06:00 +29°C° 0 mm 2 mps 752 mmHg 88%
    07:00 +30°C° 0.1 mm 2 mps 752 mmHg 83%
    08:00 +31°C° 0.1 mm 2 mps 753 mmHg 78%
    09:00 +34°C° 0.1 mm 2 mps 753 mmHg 74%
    10:00 +34°C° 0.8 mm 2 mps 753 mmHg 70%
    11:00 +35°C° 0.8 mm 2 mps 752 mmHg 66%
    12:00 +35°C° 0 mm 2 mps 753 mmHg 66%
    13:00 +36°C° 0.5 mm 2 mps 752 mmHg 64%
    14:00 +35°C° 0.5 mm 1 mps 752 mmHg 62%
    15:00 +35°C° 0.5 mm 1 mps 751 mmHg 60%
    16:00 +35°C° 0.1 mm 1 mps 751 mmHg 64%
    17:00 +34°C° 0.1 mm 1 mps 751 mmHg 68%
    18:00 +33°C° 0 mm 1 mps 751 mmHg 70%
    19:00 +32°C° 0.2 mm 1 mps 751 mmHg 72%
    20:00 +32°C° 0.2 mm 1 mps 751 mmHg 74%
    21:00 +31°C° 0.2 mm 1 mps 752 mmHg 76%
    22:00 +31°C° 1 mm 1 mps 752 mmHg 78%
    23:00 +31°C° 1 mm 1 mps 752 mmHg 79%

    Tomorrow, 24 September, Sunday

    Time Temperature Precipitation Wind Pressure Humidity
    00:00 +31°C° 1 mm 1 mps 752 mmHg 81%
    01:00 +30°C° 2.1 mm 1 mps 752 mmHg 82%
    02:00 +30°C° 2.1 mm 1 mps 751 mmHg 83%
    03:00 +30°C° 2.1 mm 1 mps 751 mmHg 84%
    04:00 +30°C° 0.6 mm 1 mps 751 mmHg 85%
    05:00 +29°C° 0.6 mm 1 mps 751 mmHg 85%
    06:00 +29°C° 0.6 mm 1 mps 751 mmHg 86%
    07:00 +30°C° 0.4 mm 1 mps 752 mmHg 82%
    08:00 +31°C° 0.4 mm 1 mps 752 mmHg 77%
    09:00 +32°C° 0.4 mm 1 mps 753 mmHg 73%
    10:00 +33°C° 0.2 mm 1 mps 752 mmHg 69%
    11:00 +34°C° 0.2 mm 1 mps 752 mmHg 64%
    12:00 +33°C° 0.2 mm 0 mps 752 mmHg 59%
    13:00 +36°C° 0 mm 1 mps 751 mmHg 58%
    14:00 +36°C° 0 mm 1 mps 750 mmHg 58%
    15:00 +36°C° 0 mm 1 mps 750 mmHg 57%
    16:00 +35°C° 0 mm 1 mps 749 mmHg 61%
    17:00 +34°C° 0 mm 1 mps 749 mmHg 65%
    18:00 +33°C° 0 mm 1 mps 749 mmHg 69%
    19:00 +33°C° 0 mm 1 mps 749 mmHg 70%
    20:00 +32°C° 0 mm 1 mps 750 mmHg 71%
    21:00 +32°C° 0 mm 1 mps 750 mmHg 73%
    22:00 +31°C° 0.2 mm 1 mps 750 mmHg 74%
    23:00 +29°C° 0.2 mm 0 mps 750 mmHg 76%

    Day after tomorrow, 25 September, Monday

    Time Temperature Precipitation Wind Pressure Humidity
    00:00 +29°C° 0.2 mm 0 mps 750 mmHg 77%
    01:00 +29°C° 0.1 mm 0 mps 750 mmHg 78%
    02:00 +28°C° 0.1 mm 0 mps 750 mmHg 79%
    03:00 +28°C° 0.1 mm 0 mps 749 mmHg 80%
    04:00 +30°C° 0 mm 1 mps 749 mmHg 81%
    05:00 +30°C° 0 mm 1 mps 750 mmHg 82%
    06:00 +29°C° 0 mm 1 mps 750 mmHg 83%
    07:00 +31°C° 0 mm 1 mps 750 mmHg 79%
    08:00 +32°C° 0 mm 1 mps 751 mmHg 75%
    09:00 +33°C° 0 mm 1 mps 752 mmHg 70%
    10:00 +34°C° 0 mm 1 mps 751 mmHg 66%
    11:00 +33°C° 0 mm 0 mps 751 mmHg 61%
    12:00 +34°C° 0 mm 0 mps 750 mmHg 56%
    13:00 +34°C° 0 mm 0 mps 749 mmHg 55%
    14:00 +36°C° 0 mm 1 mps 749 mmHg 55%
    15:00 +36°C° 0 mm 1 mps 748 mmHg 54%
    16:00 +36°C° 0 mm 1 mps 748 mmHg 57%
    17:00 +35°C° 0 mm 1 mps 748 mmHg 60%
    18:00 +32°C° 0 mm 0 mps 748 mmHg 63%
    19:00 +31°C° 0 mm 0 mps 748 mmHg 64%
    20:00 +31°C° 0 mm 0 mps 749 mmHg 65%
    21:00 +31°C° 0 mm 0 mps 750 mmHg 66%
    22:00 +30°C° 0 mm 0 mps 750 mmHg 67%
    23:00 +32°C° 0 mm 1 mps 750 mmHg 69%

    26 September, Tuesday

    Time Temperature Precipitation Wind Pressure Humidity
    00:00 +32°C° 0 mm 1 mps 750 mmHg 70%
    01:00 +31°C° 0 mm 1 mps 750 mmHg 71%
    02:00 +29°C° 0 mm 0 mps 749 mmHg 73%
    03:00 +29°C° 0 mm 0 mps 749 mmHg 74%
    04:00 +29°C° 0 mm 0 mps 749 mmHg 75%
    05:00 +28°C° 0 mm 0 mps 749 mmHg 76%
    06:00 +28°C° 0 mm 0 mps 750 mmHg 77%
    07:00 +30°C° 0 mm 0 mps 750 mmHg 73%
    08:00 +33°C° 0 mm 1 mps 751 mmHg 68%
    09:00 +34°C° 0 mm 1 mps 752 mmHg 64%
    10:00 +35°C° 0 mm 1 mps 751 mmHg 60%
    11:00 +34°C° 0 mm 0 mps 751 mmHg 56%
    12:00 +35°C° 0 mm 0 mps 751 mmHg 51%
    13:00 +35°C° 0 mm 0 mps 750 mmHg 53%
    14:00 +35°C° 0 mm 0 mps 749 mmHg 54%
    15:00 +37°C° 0 mm 1 mps 748 mmHg 55%
    16:00 +36°C° 0 mm 1 mps 748 mmHg 57%
    17:00 +33°C° 0 mm 0 mps 748 mmHg 59%
    18:00 +32°C° 0 mm 0 mps 749 mmHg 61%
    19:00 +32°C° 0 mm 0 mps 749 mmHg 62%
    20:00 +31°C° 0 mm 0 mps 750 mmHg 63%
    21:00 +31°C° 0 mm 0 mps 751 mmHg 64%
    22:00 +31°C° 0 mm 0 mps 751 mmHg 66%
    23:00 +32°C° 0 mm 1 mps 751 mmHg 67%

    27 September, Wednesday

    Time Temperature Precipitation Wind Pressure Humidity
    00:00 +32°C° 0 mm 1 mps 750 mmHg 68%
    01:00 +32°C° 0 mm 1 mps 750 mmHg 69%
    02:00 +31°C° 0 mm 1 mps 750 mmHg 71%
    03:00 +31°C° 0 mm 1 mps 749 mmHg 72%
    04:00 +29°C° 0 mm 0 mps 750 mmHg 72%
    05:00 +29°C° 0 mm 0 mps 750 mmHg 73%
    06:00 +29°C° 0 mm 0 mps 750 mmHg 74%
    07:00 +30°C° 0 mm 0 mps 751 mmHg 70%
    08:00 +31°C° 0 mm 0 mps 751 mmHg 67%
    09:00 +32°C° 0 mm 0 mps 752 mmHg 64%
    10:00 +33°C° 0 mm 0 mps 752 mmHg 59%
    11:00 +34°C° 0 mm 0 mps 751 mmHg 55%
    12:00 +35°C° 0 mm 0 mps 751 mmHg 51%
    13:00 +35°C° 0 mm 0 mps 750 mmHg 52%
    14:00 +35°C° 0 mm 0 mps 749 mmHg 53%
    15:00 +35°C° 0 mm 0 mps 749 mmHg 54%
    16:00 +34°C° 0 mm 0 mps 749 mmHg 56%
    17:00 +33°C° 0 mm 0 mps 749 mmHg 58%
    18:00 +32°C° 0 mm 0 mps 749 mmHg 60%
    19:00 +34°C° 0 mm 1 mps 749 mmHg 62%
    20:00 +33°C° 0 mm 1 mps 750 mmHg 63%
    21:00 +33°C° 0 mm 1 mps 751 mmHg 65%
    22:00 +32°C° 0 mm 1 mps 751 mmHg 67%
    23:00 +32°C° 0 mm 1 mps 750 mmHg 68%

    28 September, Thursday

    Time Temperature Precipitation Wind Pressure Humidity
    00:00 +32°C° 0 mm 1 mps 750 mmHg 70%
    01:00 +31°C° 0 mm 1 mps 750 mmHg 71%
    02:00 +31°C° 0 mm 1 mps 749 mmHg 73%
    03:00 +31°C° 0 mm 1 mps 749 mmHg 74%
    04:00 +31°C° 0 mm 1 mps 749 mmHg 75%
    05:00 +31°C° 0 mm 1 mps 750 mmHg 76%
    06:00 +30°C° 0 mm 1 mps 750 mmHg 77%
    07:00 +31°C° 0.3 mm 1 mps 751 mmHg 76%
    08:00 +32°C° 0.3 mm 2 mps 751 mmHg 74%
    09:00 +34°C° 0.3 mm 2 mps 752 mmHg 73%
    10:00 +34°C° 0.6 mm 2 mps 751 mmHg 70%
    11:00 +35°C° 0.6 mm 2 mps 751 mmHg 66%
    12:00 +36°C° 0.6 mm 2 mps 750 mmHg 63%
    13:00 +36°C° 0 mm 2 mps 750 mmHg 61%
    14:00 +35°C° 0 mm 1 mps 749 mmHg 60%
    15:00 +35°C° 0 mm 1 mps 748 mmHg 58%
    16:00 +35°C° 0 mm 1 mps 748 mmHg 61%
    17:00 +34°C° 0 mm 1 mps 749 mmHg 63%
    18:00 +33°C° 0 mm 1 mps 749 mmHg 66%
    19:00 +32°C° 0 mm 1 mps 749 mmHg 68%
    20:00 +32°C° 0 mm 1 mps 750 mmHg 69%
    21:00 +32°C° 0 mm 1 mps 750 mmHg 71%
    22:00 +31°C° 0.2 mm 1 mps 750 mmHg 73%
    23:00 +31°C° 0.2 mm 1 mps 750 mmHg 75%
    Show more